EW5862 Weather Reports


time (UTC)temp
C
wind
direction
speed
KPH
gust
KPH
rain 1hr
cm
rain 24hr
cm
rain mn
cm
humidity
%
barometer
mb
20260502224516 15 0.0 0.0 0.00 0.00 0.00 84 1016.0
20260502223516 15 0.0 0.0 0.00 0.00 0.00 84 1016.1
20260502222537 15 0.0 1.6 0.00 0.00 0.00 84 1016.1
20260502221516 14 0.0 6.4 0.00 0.00 0.00 84 1015.9
20260502220516 14 0.0 0.0 0.00 0.00 0.00 84 1015.8
20260502215517 14 338 3.2 8.0 0.00 0.00 0.00 84 1016.0
20260502214517 14 0.0 0.0 0.00 0.00 0.00 84 1015.9
20260502213516 14 0.0 0.0 0.00 0.00 0.00 84 1015.9
20260502212517 14 0.0 0.0 0.00 0.00 0.00 84 1015.8
20260502211516 14 338 1.6 4.8 0.00 0.00 0.00 84 1015.9
20260502210517 13 0.0 0.0 0.00 0.00 0.00 84 1016.2
20260502205516 13 0.0 0.0 0.00 0.00 0.00 84 1016.0
20260502204516 13 0.0 0.0 0.00 0.00 0.00 84 1015.8
20260502203516 13 0.0 3.2 0.00 0.00 0.00 84 1015.8
20260502202556 13 338 1.6 4.8 0.00 0.00 0.00 84 1015.5
20260502201556 14 338 1.6 3.2 0.00 0.00 0.00 84 1015.3
20260502200516 14 338 4.8 11.3 0.00 0.00 0.00 84 1015.2
20260502195516 14 338 1.6 6.4 0.00 0.00 0.00 83 1015.3
20260502194516 15 338 1.6 4.8 0.00 0.00 0.00 83 1015.2
20260502193537 15 338 3.2 11.3 0.00 0.00 0.00 83 1014.9
20260502192516 15 338 1.6 4.8 0.00 0.00 0.00 82 1015.3
20260502191516 15 338 4.8 8.0 0.00 0.00 0.00 82 1015.1
20260502190537 15 338 1.6 3.2 0.00 0.00 0.00 82 1015.1
20260502185516 16 338 3.2 8.0 0.00 0.00 0.00 82 1015.0
20260502184516 16 338 3.2 8.0 0.00 0.00 0.00 82 1015.1
20260502183516 16 0.0 0.0 0.00 0.00 0.00 81 1015.0
20260502182516 16 0.0 3.2 0.00 0.00 0.00 81 1015.1
20260502181516 16 338 3.2 6.4 0.00 0.00 0.00 81 1015.2
20260502180516 17 338 4.8 8.0 0.00 0.00 0.00 80 1015.0
20260502170516 17 338 1.6 4.8 0.00 0.00 0.00 79 1015.6
20260502163516 17 338 1.6 4.8 0.00 0.00 0.00 78 1015.9
20260502162516 17 338 1.6 3.2 0.00 0.00 0.00 78 1016.0
20260502161516 17 338 3.2 6.4 0.00 0.00 0.00 77 1015.8
20260502160516 17 338 3.2 11.3 0.00 0.00 0.00 78 1016.2
20260502151516 17 338 14.5 20.9 0.00 0.00 0.00 77 1016.5
20260502150516 17 338 9.7 14.5 0.00 0.00 0.00 77 1016.5
20260502130516 18 338 9.7 16.1 0.00 0.00 0.00 70 1018.1
20260502123516 18 338 8.0 19.3 0.00 0.00 0.00 69 1017.8
20260502122516 18 338 11.3 20.9 0.00 0.00 0.00 68 1018.0
20260502121516 19 338 8.0 16.1 0.00 0.00 0.00 69 1018.2
20260502120536 19 338 9.7 20.9 0.00 0.00 0.00 66 1018.3
20260502115515 20 338 6.4 16.1 0.00 0.00 0.00 66 1018.5
20260502114516 19 338 9.7 17.7 0.00 0.00 0.00 67 1018.4
20260502113515 19 338 8.0 17.7 0.00 0.00 0.00 67 1018.5
20260502112515 18 338 4.8 12.9 0.00 0.00 0.00 69 1018.7
20260502111515 18 338 6.4 16.1 0.00 0.00 0.00 71 1018.8
20260502110516 18 338 6.4 14.5 0.00 0.00 0.00 71 1018.9
20260502105515 18 338 6.4 14.5 0.00 0.00 0.00 73 1019.0
20260502104515 18 338 11.3 17.7 0.00 0.00 0.00 73 1019.0
20260502103515 18 338 16.1 24.1 0.00 0.00 0.00 72 1019.1
20260502102515 18 338 12.9 19.3 0.00 0.03 0.00 72 1018.9
20260502101516 17 338 8.0 14.5 0.00 0.03 0.00 74 1019.1
20260502100516 17 338 12.9 16.1 0.00 0.03 0.00 74 1019.3
20260502091517 17 338 12.9 20.9 0.00 0.03 0.00 72 1019.5
20260502090517 17 338 9.7 17.7 0.00 0.03 0.00 74 1019.5
20260502071517 15 338 3.2 6.4 0.00 0.05 0.00 83 1019.5
20260502070517 15 338 6.4 11.3 0.00 0.05 0.00 83 1019.2
20260502065517 15 338 6.4 11.3 0.00 0.05 0.00 84 1019.1
20260502064517 15 338 6.4 11.3 0.00 0.05 0.00 84 1019.5
20260502063517 15 338 6.4 11.3 0.00 0.05 0.00 84 1019.7
20260502062517 14 338 4.8 6.4 0.00 0.05 0.00 84 1019.6
20260502061517 14 338 3.2 6.4 0.00 0.05 0.00 84 1019.4
20260502060517 14 315 3.2 4.8 0.00 0.05 0.00 84 1019.4
20260502055517 14 338 1.6 4.8 0.00 0.05 0.00 84 1019.2
20260502054517 14 338 3.2 6.4 0.00 0.05 0.00 84 1019.4
20260502053517 14 338 4.8 11.3 0.00 0.05 0.00 84 1019.4
20260502052537 14 338 1.6 3.2 0.00 0.05 0.00 84 1019.4
20260502051517 14 338 3.2 8.0 0.00 0.05 0.00 84 1019.5
20260502050517 14 338 3.2 6.4 0.00 0.05 0.00 84 1019.5
20260502045517 14 338 4.8 8.0 0.00 0.05 0.00 84 1019.5
20260502044537 14 0.0 0.0 0.00 0.05 0.00 84 1019.4
20260502043517 14 0.0 0.0 0.00 0.05 0.00 84 1019.6
20260502042517 14 0.0 0.0 0.00 0.05 0.00 84 1019.5
20260502041517 14 0.0 0.0 0.00 0.05 0.00 84 1019.5
20260502040537 14 0.0 0.0 0.00 0.05 0.00 84 1019.6
20260502035517 14 0.0 0.0 0.00 0.05 0.00 84 1019.7
20260502034517 14 0.0 0.0 0.00 0.05 0.00 84 1019.9
20260502033517 14 0.0 0.0 0.00 0.05 0.00 84 1019.9
20260502032517 14 0.0 0.0 0.00 0.05 0.00 84 1020.0
20260502031517 14 0.0 0.0 0.00 0.05 0.00 84 1020.0
20260502030517 14 0.0 0.0 0.00 0.05 0.00 84 1020.0
20260502025517 14 0.0 0.0 0.00 0.05 0.00 84 1019.9
20260502024517 14 0.0 0.0 0.00 0.05 0.00 84 1019.7
20260502023537 14 0.0 0.0 0.00 0.05 0.00 84 1019.7
20260502022517 14 0.0 3.2 0.00 0.05 0.00 84 1019.7
20260502021517 14 338 3.2 6.4 0.00 0.05 0.00 84 1019.8
20260502020517 14 338 4.8 8.0 0.00 0.05 0.00 84 1019.7
20260502015517 14 338 1.6 4.8 0.00 0.05 0.00 84 1020.0
20260502014516 14 0.0 0.0 0.00 0.05 0.00 84 1019.9
20260502013517 15 338 1.6 4.8 0.00 0.05 0.00 84 1020.1
20260502012536 15 338 1.6 4.8 0.00 0.05 0.00 84 1020.1
20260502011517 15 0.0 0.0 0.00 0.05 0.00 84 1020.2
20260502010517 15 0.0 0.0 0.00 0.05 0.00 84 1020.1
20260502005517 15 0.0 0.0 0.00 0.05 0.00 84 1020.4
20260502004517 15 0.0 0.0 0.00 0.05 0.00 84 1020.1
20260502003516 15 0.0 0.0 0.00 0.05 0.00 84 1020.2
20260502002517 15 0.0 0.0 0.00 0.05 0.00 84 1020.5
20260502001517 15 338 1.6 4.8 0.00 0.05 0.00 84 1020.6
20260502000517 15 338 3.2 6.4 0.00 0.05 0.00 84 1020.7
20260501235517 15 338 3.2 6.4 0.00 0.05 0.00 84 1020.7
20260501234516 15 338 3.2 6.4 0.00 0.05 0.00 84 1020.7
20260501233517 15 338 3.2 6.4 0.00 0.05 0.00 84 1020.8
20260501232517 15 338 3.2 6.4 0.00 0.05 0.00 84 1020.9
20260501231516 15 338 3.2 4.8 0.00 0.05 0.00 84 1021.0
20260501230517 15 338 3.2 6.4 0.00 0.05 0.00 84 1020.9
20260501225516 15 338 3.2 6.4 0.00 0.05 0.00 84 1020.8